#timestamp,LO_Frequency,Hit,StdDev 
1505642415.1,286047000.3,N
1505642435.9,286047000.8,N
1505642455.7,286046999.1,N
1505642475.5,286047000.1,N
1505642495.4,286047002.3,N
1505642515.2,286046999.7,N
1505642535.0,286047000.5,N
1505642535.9,286047000.5,N
1505642555.8,286047000.3,N
1505642575.6,286047005.6,Y
1505642595.4,286047001.8,P
1505642615.3,286047000.0,N
1505642635.1,286047000.0,N
1505642636.0,286047000.0,N
1505642655.8,286047004.0,Y
1505642675.7,286047000.2,P
1505642695.5,286047000.7,P
1505642715.3,286046998.6,P
1505642735.2,286046997.9,N
1505642755.9,286046998.2,N
1505642775.7,286046998.8,N
1505642795.6,286046995.0,Y
1505642815.4,286046996.9,P
1505642835.2,286046996.0,P
1505642855.1,286046996.0,N
1505642856.0,286046996.0,Y
1505642875.8,286047002.4,P
1505642895.6,286046999.0,N
1505642915.5,286046999.1,N
1505642935.3,286046998.4,N
1505642955.1,286047002.5,N
1505642975.9,286047001.4,N
1505642995.7,286046998.5,N
1505643015.5,286046999.2,N
1505643035.4,286046999.3,N
1505643055.2,286046999.6,N
1505643075.0,286047000.7,N
1505643075.9,286047000.7,N
1505643095.7,286046995.7,N
1505643115.6,286046994.9,N
1505643135.4,286046998.0,N
1505643155.2,286046997.7,N
1505643175.1,286046998.0,N
1505643176.0,286046998.0,N
1505643195.8,286046999.6,N
1505643215.6,286046999.5,N
1505643235.5,286046998.5,N
1505643255.3,286047001.1,N
1505643275.1,286047002.4,N
1505643295.9,286047000.4,N
1505643315.7,286046998.2,N
1505643335.5,286047000.8,N
1505643355.4,286046999.4,N
1505643375.2,286046998.7,N
1505643395.0,286047001.3,N
1505643395.9,286047001.3,N
1505643415.8,286047003.5,N
1505643435.6,286047004.0,N
1505643455.8,286047004.2,N
1505643475.6,286047003.7,N
1505643495.4,286047004.1,N
1505643515.3,286046999.7,N
1505643535.1,286047004.0,N
1505643536.0,286047004.0,N
1505643555.8,286047000.1,N
1505643575.6,286046998.9,N
1505643595.5,286046997.4,N
1505643615.3,286046997.2,N
1505643635.1,286046996.8,N
1505643655.9,286046999.6,N
1505643675.7,286046996.4,N
1505643695.5,286046994.5,N
1505643715.4,286046992.5,N
1505643735.2,286046994.0,N
1505643755.0,286046995.4,N
1505643755.9,286046995.4,N
1505643775.8,286046997.4,N
1505643795.6,286046993.7,N
1505643815.4,286046996.2,N
1505643835.3,286046996.5,N
1505643855.1,286046995.3,N
1505643856.0,286046995.3,N
1505643875.8,286046999.6,N
1505643895.7,286046997.4,N
1505643915.5,286046996.3,N
1505643935.3,286046993.8,N
1505643955.2,286046996.1,N
1505643975.9,286046993.9,N
1505643995.7,286046997.6,N
1505644015.6,286046998.0,N
1505644035.4,286046997.6,N
1505644055.2,286046996.6,N
1505644075.0,286046997.7,N
1505644075.9,286046997.7,N
1505644095.8,286046997.0,N
1505644115.6,286046999.4,N
1505644135.4,286046995.8,N
1505644155.3,286046996.8,N
1505644175.1,286046998.9,N
1505644195.8,286047000.9,N
1505644215.7,286046997.9,N
1505644235.5,286046996.4,N
1505644255.3,286046992.0,Y
1505644275.2,286046996.5,P
1505644295.9,286047000.0,N
1505644315.7,286047000.6,N
1505644335.6,286047002.2,N
1505644355.4,286046999.1,N
1505644375.2,286047002.4,N
1505644395.1,286047000.4,N
1505644396.0,286047000.4,N
1505644415.8,286047002.2,N
1505644435.6,286047001.8,N
1505644455.5,286047002.2,N
1505644475.3,286047001.8,N
1505644495.1,286047006.0,Y
1505644515.9,286047005.9,P
1505644535.7,286047005.9,N
1505644555.5,286047006.9,N
1505644575.4,286047001.9,N
1505644595.2,286046998.5,N
1505644615.0,286046998.8,N
1505644615.9,286046998.8,N
1505644635.7,286047000.9,N
1505644655.6,286047000.6,N
1505644675.4,286046999.3,N
1505644695.2,286046996.5,N
1505644715.1,286046997.0,N
1505644716.0,286046997.0,N
1505644735.8,286046999.3,N
1505644755.6,286047002.4,N
1505644775.5,286046998.7,N
1505644795.3,286046999.4,N
1505644815.1,286046997.0,N
1505644835.9,286046996.8,N
1505644855.7,286046996.6,N
1505644875.5,286046991.7,N
1505644895.4,286046995.1,N
1505644915.2,286046998.0,N
1505644935.0,286046995.1,N
1505644935.9,286046995.1,N
1505644955.8,286046999.5,N
1505644975.6,286046996.6,N
1505644995.4,286046998.8,N
1505645015.3,286046999.0,N
1505645035.1,286046998.2,N
1505645036.0,286046998.2,N
1505645055.8,286046997.1,N
1505645075.6,286046999.1,N
1505645095.5,286047000.8,N
1505645115.3,286047001.2,N
1505645135.1,286046997.2,N
1505645155.9,286046996.5,N
1505645175.7,286046996.0,N
1505645195.5,286046992.6,Y
1505645215.4,286046991.7,P
1505645235.2,286046996.4,N
1505645255.0,286046997.0,N
1505645255.9,286046997.0,N
1505645275.8,286046997.2,N
1505645295.6,286046998.3,N
1505645315.4,286047000.8,N
1505645335.3,286047000.7,N
1505645355.1,286047000.7,N
1505645356.0,286047000.7,N
1505645375.8,286047000.9,N
1505645395.7,286046996.9,N
1505645415.5,286046999.2,N
1505645435.3,286046999.7,N
1505645455.2,286046998.7,N
1505645475.9,286046995.6,N
1505645495.7,286046997.3,N
1505645515.5,286046997.1,N
1505645535.4,286047001.0,N
1505645555.2,286046999.7,N
1505645575.0,286047000.7,N
1505645576.0,286047000.7,N
1505645595.8,286047003.9,N
1505645615.6,286047001.3,N
1505645635.4,286047002.5,N
1505645655.3,286047000.6,N
1505645675.1,286047001.1,N
1505645695.8,286046998.6,N
1505645715.7,286046999.2,N
1505645735.5,286046998.7,N
1505645755.3,286046995.6,N
1505645775.2,286046999.1,N
1505645795.9,286046999.4,N
1505645815.7,286046998.6,N
1505645835.6,286047001.2,N
1505645855.4,286047000.6,N
1505645875.2,286046999.0,N
1505645895.1,286047000.5,N
1505645896.0,286047000.5,N
1505645915.8,286046996.6,N
1505645935.6,286046997.1,N
1505645955.5,286046999.7,N
1505645975.3,286047001.1,N
1505645995.1,286047000.6,N
